Location: Beuerbach
(48.1459°N, 10.9174°E)
Time: 20:52:15
(UTC+00:00)

SL-16 R/B - Pass Details

Date: 14 August 2024
Orbit: 842 x 845 km, 71.0° (Epoch: 07 September)

Event Time Altitude Azimuth Distance (km) Brightness Sun altitude
Exits shadow 01:41:19 - 285° (WNW) 3,308 5.1 -20.2°
Reaches altitude 10° 01:45:52 10° 320° (NW) 2,474 4.8 -19.8°
Maximum altitude 01:47:08 11° 334° (NNW) 2,426 4.9 -19.7°
Drops below altitude 10° 01:48:24 10° 347° (NNW) 2,476 5.1 -19.5°
Sets 01:53:22 0° 24° (NNE) 3,416 6.8 -19.0°
